Location: Koszewko
(53.2876°N, 14.9061°E)
Time: 22:09:53
(UTC+00:00)

SL-08 RB Rocket - Pass Details

Date: 03 March 2021
Orbit: 647 x 683 km, 97.8° (Epoch: 12 April)

Event Time Altitude Azimuth Distance (km) Brightness Sun altitude
Rises 17:14:42 0° 141° (SE) 2,975 6.7 -5.6°
Reaches altitude 10° 17:17:00 10° 134° (SE) 2,073 5.9 -6.0°
Maximum altitude 17:21:12 39° 66° (ENE) 996 4.2 -6.6°
Drops below altitude 10° 17:25:29 10° 358° (N) 2,109 6.3 -7.2°
Sets 17:27:50 0° 351° (N) 3,033 7.2 -7.6°
